SCP
0 0 0 0 0 0 0 0 0 0 0 0 0 0 0 0 0 0 0 0 0 1 1 1 0 0 0 0 0 0 0 0 0 0 0 1 1 1 0 0 0 0 1 1 1 1 1 1 0
0 0 0 0 0 0 0 0 0 0 0 0 0 0 0 0 0 0 0 0 0 0 1 1 0 0 0 0 0 1 0 0 0 0 1 1 1 0 0 0 0 0 1 1 1 1 1 1 1
0 0 0 0 0 0 0 0 0 0 0 0 0 0 0 0 0 0 1 1 0 0 0 0 0 0 0 0 0 0 1 0 0 0 1 1 0 0 0 0 0 0 0 0 1 1 1 1 1
0 0 0 0 0 0 0 0 0 0 0 0 0 0 0 0 0 1 1 0 0 0 0 0 0 0 0 0 0 0 0 0 0 0 0 0 0 0 0 0 0 0 0 0 0 0 0 1 1
0 0 0 0 0 0 0 0 0 0 0 0 0 0 0 0 0 1 1 0 0 0 0 0 0 0 0 0 0 0 0 0 0 0 0 0 0 0 0 0 0 0 0 0 0 0 0 0 0
0 0 0 0 0 0 0 0 0 0 0 0 0 0 0 0 0 1 0 0 0 0 0 0 0 0 0 0 0 0 0 0 0 0 0 0 0 0 0 0 0 0 0 0 0 0 0 0 0
0 0 0 0 0 0 0 0 0 0 0 0 0 0 0 0 0 0 0 0 0 0 0 0 0 0 0 0 0 0 0 0 0 0 0 0 0 0 0 0 0 0 0 0 0 0 0 0 0
1 0 0 0 0 0 0 0 0 0 0 0 0 0 0 0 0 0 0 0 0 0 0 0 0 0 0 0 0 0 0 0 0 0 0 0 0 0 0 0 0 0 0 0 0 0 0 0 0
1 1 0 0 0 0 0 0 0 0 0 0 0 0 0 0 0 0 0 0 0 0 0 0 0 0 0 0 0 0 0 0 0 0 0 0 0 0 0 0 0 0 0 0 0 0 0 0 0
1 1 0 0 0 0 0 0 0 0 0 0 0 0 0 0 0 0 0 0 0 0 0 0 0 0 0 0 0 0 0 0 0 0 0 0 0 0 0 0 0 0 0 0 0 0 0 0 0
1 0 0 0 0 0 0 0 0 0 0 0 0 0 0 0 0 0 0 0 0 0 0 0 0 0 0 0 0 0 0 0 0 0 0 0 0 0 0 0 0 0 0 0 0 0 0 0 0
0 0 0 0 0 0 0 0 0 0 0 0 0 0 0 0 0 0 0 0 0 0 0 0 0 0 0 0 0 0 0 0 0 0 0 0 0 0 0 0 0 0 0 0 0 0 0 0 0
1 1 0 0 0 0 0 0 0 0 0 0 0 0 0 0 0 0 0 0 0 0 0 0 0 0 0 0 0 0 0 0 0 0 0 0 0 0 0 0 0 0 0 0 0 0 0 0 0
1 1 0 0 0 0 0 0 0 0 0 0 0 0 0 0 0 0 0 0 0 0 0 0 0 0 0 0 0 0 0 0 0 0 0 0 0 0 0 0 0 0 0 0 0 0 0 0 0
1 1 1 0 0 0 0 0 0 0 0 0 0 0 0 0 0 0 0 0 0 0 0 0 0 0 0 0 0 0 0 0 0 0 0 0 0 0 0 0 0 0 0 0 0 0 0 0 0
1 0 0 0 0 0 0 0 0 0 0 0 0 0 0 0 0 0 0 0 0 0 0 0 0 0 0 0 0 0 0 0 0 0 0 0 0 0 0 0 0 0 0 0 0 0 0 0 0
0 0 0 0 0 0 0 0 0 0 0 0 0 0 0 0 0 0 0 0 0 0 0 0 0 0 0 0 0 0 0 0 0 0 0 0 0 0 0 0 0 0 0 0 0 0 0 0 0
0 0 0 0 0 0 0 0 0 0 0 0 0 0 0 0 0 0 0 0 0 0 0 0 0 0 0 0 0 0 0 0 0 0 0 0 0 0 0 0 0 0 0 0 0 0 0 0 0
0 0 0 0 0 0 0 0 0 0 0 0 0 0 0 0 0 0 0 0 0 0 0 0 0 0 0 0 0 0 0 0 0 0 0 0 0 0 0 0 0 0 0 0 0 0 0 0 0
0 0 0 0 0 0 0 0 0 0 0 0 0 0 0 0 0 0 0 0 0 0 0 0 0 0 0 0 0 0 0 0 0 0 0 0 0 0 0 0 0 0 0 0 0 0 0 0 0
0 0 0 0 0 0 0 0 0 0 0 0 0 0 0 0 0 0 0 0 0 0 0 0 0 0 0 0 0 0 0 0 0 0 0 0 0 0 0 0 0 0 0 0 0 0 0 0 0
0 0 0 0 0 0 0 0 0 0 0 0 0 0 0 0 0 0 0 0 0 0 0 0 0 0 0 0 0 0 0 0 0 0 0 0 0 0 0 0 0 0 0 0 0 0 0 0 0
0 0 0 0 0 0 0 0 0 0 0 0 0 0 0 0 0 0 0 0 0 0 0 0 0 0 0 0 0 0 0 0 0 0 0 0 0 0 0 0 0 0 0 0 0 0 0 0 0
0 0 0 0 0 0 0 0 0 0 0 0 0 0 0 0 0 0 0 0 0 0 0 0 0 0 0 0 0 0 0 0 0 0 0 0 0 0 0 0 0 0 0 0 0 0 0 0 0
0 0 0 0 0 0 0 0 0 0 0 0 0 0 0 0 0 0 0 0 0 0 0 0 0 0 0 0 0 0 0 0 0 0 0 0 0 0 0 0 0 0 0 0 0 0 0 0 0
0 0 0 0 0 0 0 0 0 0 0 0 0 0 0 0 0 0 0 0 0 0 0 0 0 0 0 0 0 0 0 0 0 0 0 0 0 0 0 0 0 0 0 0 0 0 0 0 0
0 0 0 0 0 0 0 0 0 0 0 0 0 0 0 0 0 0 0 0 0 0 0 0 0 0 0 0 0 0 0 0 0 0 0 0 0 0 0 0 0 0 0 0 0 0 0 0 0
0 0 0 0 0 0 0 0 0 0 0 0 0 0 0 1 1 0 0 0 0 0 0 0 0 0 0 0 0 0 0 0 0 0 0 0 0 0 0 0 0 0 0 0 0 0 0 0 0
0 0 0 0 0 0 0 0 0 0 0 0 0 0 0 1 1 0 1 1 0 0 0 0 0 0 0 0 0 0 0 0 0 0 0 0 0 0 0 0 0 0 0 0 0 0 0 0 0
0 0 0 0 0 0 0 0 0 0 0 0 0 0 0 0 0 0 1 1 1 0 0 0 0 0 0 0 0 0 0 0 0 0 0 0 0 0 0 0 0 0 0 0 0 0 0 0 0
Wind_Speed
3 2 2 2 3 1 4 3 3 4 4 5 6 5 7 8 7 8 6 6 7 7 8 9 9 10 10 10 11 11 10 10 10 9 9 9 9 8 8 8 8 8 7 7 6 6 5 5 5
1 1 2 3 2 3 4 3 5 5 6 6 6 6 8 9 8 9 7 8 8 8 8 9 10 10 11 11 11 11 10 10 10 9 9 9 9 8 8 8 8 7 7 7 7 6 6 6 5
1 2 3 2 1 3 5 4 6 7 5 4 5 6 6 7 7 7 9 9 9 9 9 11 10 11 11 11 11 11 11 10 10 9 9 9 8 8 8 8 7 7 7 7 7 6 6 5 5
2 3 2 1 5 4 4 5 5 6 5 5 7 8 8 7 6 10 11 10 10 9 9 11 10 11 11 11 11 10 10 10 9 9 9 8 8 8 7 7 7 7 7 7 7 6 5 5 5
2 3 3 4 5 5 4 4 3 4 4 6 7 10 10 8 12 13 11 9 10 10 10 11 11 11 11 10 10 10 9 9 9 8 8 8 8 7 7 7 7 7 7 7 6 6 6 5 5
2 2 3 5 6 6 4 3 4 6 9 9 10 11 10 9 11 11 10 9 9 9 9 10 11 10 10 9 9 9 9 9 9 8 8 8 8 7 7 8 7 7 7 7 7 7 6 6 5
2 1 3 5 7 6 4 3 4 7 9 8 8 10 10 10 10 10 9 9 8 8 8 8 9 9 9 9 9 9 9 9 8 8 8 8 8 8 7 7 8 8 8 8 7 7 6 6 5
2 1 4 4 6 6 5 5 5 6 9 8 6 9 11 12 11 10 9 8 8 7 7 7 6 6 6 8 9 8 8 8 7 7 7 5 3 5 4 5 8 8 8 8 8 7 6 5 5
3 2 4 4 5 6 7 7 6 5 9 7 7 11 14 15 12 10 9 8 7 6 6 6 6 6 5 5 6 5 5 5 2 4 5 2 4 6 4 10 8 8 8 8 8 7 5 3 1
2 1 4 3 4 7 8 7 7 7 10 12 13 15 15 13 12 10 9 9 8 7 6 6 5 5 5 4 4 3 4 4 4 5 5 4 5 5 5 5 5 5 5 3 5 5 4 5 0
1 3 4 5 5 6 7 7 5 8 10 13 16 17 15 13 11 10 8 8 7 7 6 5 5 4 4 3 3 3 3 3 4 5 5 4 4 3 4 3 2 3 4 4 3 3 3 3 3
3 4 4 6 5 6 7 7 7 7 10 13 15 16 14 13 11 9 8 8 7 6 5 5 4 4 4 4 4 3 3 3 4 5 6 5 4 4 5 3 5 4 3 4 4 3 4 4 3
4 4 5 6 6 7 8 9 9 11 11 14 15 14 13 11 10 8 8 7 7 7 5 5 4 4 5 4 3 3 4 4 5 4 5 6 4 5 4 4 4 5 4 4 4 4 5 4 4
5 7 7 7 7 6 9 9 8 11 12 13 13 12 11 10 9 8 8 7 7 6 6 6 5 4 4 3 3 4 4 4 5 5 5 6 5 5 4 4 4 5 5 5 4 5 4 3 3
6 8 8 6 6 6 8 9 9 11 12 13 12 11 10 9 8 7 7 7 7 6 6 5 4 4 4 4 5 4 3 4 5 5 6 6 6 5 5 5 5 5 5 5 4 5 4 3 3
6 7 6 5 5 4 5 9 9 10 12 12 11 10 9 8 7 7 6 6 6 6 6 6 4 4 5 4 4 3 4 4 4 4 5 7 7 6 5 5 5 5 5 5 4 4 4 4 4
5 7 8 7 3 4 4 8 9 9 10 10 10 9 9 8 7 7 6 6 6 6 6 6 6 5 5 5 4 3 4 4 4 4 5 6 7 7 6 5 5 6 5 5 5 5 4 4 4
7 7 7 7 4 5 6 8 9 8 9 9 9 9 8 8 7 7 7 6 6 6 6 7 6 5 6 4 3 3 4 4 4 4 5 7 6 7 6 4 6 6 5 5 5 5 4 4 3
5 6 7 5 4 5 7 7 8 8 8 8 8 8 8 8 8 8 7 7 7 7 7 7 6 6 4 3 2 3 3 3 4 4 6 5 6 6 6 5 6 6 6 6 7 5 5 5 3
6 7 7 6 4 4 7 6 6 7 7 6 7 8 8 9 9 8 8 7 7 7 7 7 6 5 4 3 3 2 3 3 4 3 4 5 6 6 5 6 5 5 5 6 7 6 5 5 4
7 7 7 7 6 5 6 6 7 6 6 5 5 6 7 8 9 10 8 8 8 7 7 6 6 6 5 5 3 3 3 2 3 3 3 5 5 6 6 7 6 6 6 6 7 7 7 5 5
6 5 6 7 7 5 6 5 8 9 9 9 8 8 8 8 9 9 8 8 8 7 6 7 7 6 6 5 3 3 2 3 4 3 3 3 4 5 6 6 6 6 6 6 6 7 5 5 5
4 5 5 5 4 4 6 5 7 10 11 11 10 10 9 9 9 9 8 8 7 7 7 6 7 7 6 5 4 3 3 3 3 3 4 3 4 5 5 5 5 6 6 7 7 7 7 5 6
7 7 5 2 3 6 7 6 6 9 11 11 11 11 10 9 9 8 8 7 7 7 7 7 7 7 6 5 4 3 4 3 3 3 3 2 3 3 5 4 5 5 6 6 6 6 7 6 6
7 7 5 5 5 5 5 6 5 7 8 9 11 12 11 10 10 10 10 9 9 9 8 8 8 7 6 5 5 4 3 3 3 2 3 2 3 3 4 4 4 5 5 6 5 5 6 6 6
9 8 5 5 5 5 6 7 3 5 5 7 9 10 11 11 10 10 10 10 10 10 9 9 9 8 7 6 5 4 4 2 2 2 2 3 3 3 4 3 4 4 5 4 5 5 5 6 6
9 7 4 3 3 4 6 5 4 6 8 9 11 12 12 11 11 10 10 10 10 10 10 9 9 8 7 7 6 5 4 3 3 3 3 2 3 3 3 3 3 4 4 4 4 4 5 5 6
4 5 5 6 5 5 6 7 6 11 13 13 13 13 13 12 12 11 10 10 10 9 9 9 8 9 8 7 5 4 4 4 3 2 3 3 3 3 2 2 3 4 4 4 4 4 5 5 5
8 7 5 4 4 4 4 3 3 7 11 14 14 14 14 14 13 12 11 10 10 10 9 9 9 8 8 7 6 6 5 4 4 3 3 2 2 2 3 3 3 4 4 4 4 4 5 5 5
7 8 9 6 5 5 4 1 4 5 8 11 13 13 13 13 12 12 11 11 10 10 10 10 9 8 7 7 6 6 5 5 4 3 3 2 3 3 3 3 3 4 4 4 4 4 4 5 5
Wind_Direction
237 254 247 232 227 138 92 87 103 109 87 72 65 70 70 48 42 80 94 98 102 101 101 107 99 97 93 90 87 87 85 82 79 75 72 67 63 59 55 50 47 44 41 36 32 27 28 28 26
266 241 238 237 226 130 100 107 107 91 108 109 82 78 80 73 71 92 106 106 108 100 96 92 97 95 91 87 86 85 84 80 76 72 68 63 59 55 52 46 42 39 36 33 31 26 25 24 24
223 247 259 232 140 101 113 111 106 99 103 106 96 68 62 82 90 94 108 116 107 97 93 94 95 93 91 89 86 83 79 74 71 68 62 58 55 52 48 42 39 35 31 29 26 20 16 10 8
235 219 223 175 104 83 107 122 128 125 102 90 105 88 78 71 88 108 117 114 106 100 96 95 93 92 90 87 82 78 74 69 65 60 55 52 49 47 44 40 37 31 26 26 23 15 10 7 4
236 239 177 136 109 106 105 116 137 128 108 105 105 101 91 86 104 114 115 112 107 102 98 97 93 92 90 86 80 76 70 63 57 52 48 44 42 39 36 34 30 26 21 20 17 15 14 12 6
223 227 177 142 120 113 106 116 131 114 112 113 113 108 97 111 115 113 112 109 104 101 100 103 99 88 85 81 76 69 63 56 53 49 45 39 37 36 32 27 23 20 19 18 16 15 12 10 10
259 206 143 131 130 126 114 115 130 123 120 115 120 111 118 123 114 116 115 109 103 102 102 102 109 110 101 81 67 62 57 53 49 46 44 42 40 37 31 26 24 23 21 20 19 16 14 19 18
301 206 142 137 139 121 121 118 106 116 109 113 123 124 133 131 128 125 118 114 112 109 107 103 100 95 94 95 78 61 55 51 48 49 44 38 58 62 35 32 37 24 22 20 16 13 14 15 20
257 214 152 133 136 122 133 128 104 112 118 110 98 108 122 129 135 133 129 127 120 114 110 106 101 94 83 75 78 79 79 58 55 80 66 348 24 30 38 40 29 24 19 18 14 7 358 325 113
250 159 98 91 110 126 132 123 124 130 123 117 112 114 125 137 142 139 138 131 127 122 116 110 103 100 90 72 76 59 56 53 39 34 33 26 34 25 17 83 48 30 6 10 22 334 279 271 344
61 83 103 105 103 121 125 113 120 133 127 131 132 134 138 142 142 138 132 125 119 119 116 109 105 95 83 85 68 54 50 51 47 38 38 22 22 24 20 18 46 25 352 8 10 308 358 355 12
106 83 102 111 112 116 117 114 111 106 109 124 130 135 142 146 142 139 131 123 124 120 112 108 104 103 93 81 74 62 55 47 45 37 29 26 25 15 25 18 16 10 20 8 357 356 14 2 9
126 115 103 110 108 111 117 116 110 106 111 123 132 141 145 144 140 135 130 130 128 123 120 108 100 92 89 82 71 67 59 41 57 44 35 32 24 21 23 28 16 13 12 11 0 3 17 11 20
119 119 119 118 112 116 125 124 117 120 130 134 142 146 148 146 144 141 143 138 133 129 119 114 113 102 101 101 90 68 64 70 52 46 40 33 30 24 13 27 25 18 9 6 359 20 10 20 28
135 129 121 119 120 126 137 127 124 137 143 144 149 148 149 153 155 151 142 137 132 128 123 117 112 111 98 85 77 76 69 64 57 48 36 38 33 24 22 21 27 18 11 10 8 21 14 31 40
150 152 143 125 120 144 164 135 134 153 153 151 153 150 155 156 158 148 145 140 135 132 125 120 124 121 106 94 88 84 72 61 56 51 40 36 36 33 29 24 27 21 16 16 17 12 21 36 37
171 169 149 132 122 150 157 141 147 162 161 156 158 156 160 159 156 148 150 145 137 132 130 127 124 124 114 106 101 85 81 66 55 49 43 35 37 32 39 28 20 24 24 22 19 23 13 33 33
165 163 150 140 144 160 152 145 150 164 166 161 161 162 165 160 153 149 148 144 141 138 134 129 129 130 122 123 113 102 84 75 64 54 46 33 32 30 32 34 28 23 29 26 28 32 30 22 18
144 156 142 123 144 162 149 147 156 166 173 172 170 168 163 154 145 144 148 150 153 150 144 139 142 137 136 128 119 105 93 81 72 58 47 38 32 29 31 23 29 21 29 25 26 22 38 34 11
151 150 140 123 135 155 146 149 159 174 179 181 181 173 164 158 151 148 154 155 158 154 152 148 146 141 134 114 101 95 88 79 70 64 59 39 35 30 27 29 31 34 32 32 29 26 20 35 22
164 170 156 140 137 152 157 162 176 178 184 185 193 189 174 169 163 157 158 155 158 157 158 152 149 143 136 130 120 124 120 125 106 80 59 39 36 37 31 32 31 30 33 35 27 26 26 26 34
165 173 161 158 173 164 198 175 183 185 190 194 193 190 184 174 168 162 162 159 159 156 157 155 150 142 137 141 137 125 110 90 74 63 67 66 52 45 37 37 35 37 37 36 32 35 28 23 31
134 157 165 176 189 176 201 204 172 182 194 194 191 190 184 176 170 166 165 161 156 153 153 152 145 138 136 134 124 132 105 91 89 82 77 67 65 50 46 40 40 39 39 38 37 33 28 32 30
144 143 136 175 209 204 199 218 182 186 195 187 185 185 180 175 168 164 158 158 153 150 152 152 147 138 138 140 137 127 108 104 97 82 70 71 75 60 55 45 44 42 39 38 35 36 41 32 32
182 167 165 184 202 199 180 227 211 181 190 191 183 180 177 173 169 164 161 162 158 157 157 156 153 147 148 150 143 130 122 120 104 87 79 61 69 63 54 47 44 43 41 37 31 37 36 40 36
195 208 204 191 190 164 188 223 185 158 181 189 182 177 173 172 171 168 166 164 161 160 160 160 157 152 152 153 142 133 127 119 94 78 73 70 61 57 58 53 51 49 41 42 40 33 36 32 39
188 210 261 259 185 190 194 207 198 179 186 184 179 177 177 173 171 168 166 166 163 162 163 163 160 156 156 152 142 135 127 120 108 101 85 73 71 64 60 68 66 61 50 38 37 36 39 34 32
214 187 205 219 198 204 202 212 198 181 189 185 184 183 177 172 170 167 167 167 163 161 161 162 162 158 156 154 145 134 134 127 116 105 90 80 73 65 63 64 73 70 62 53 40 37 32 39 47
176 195 219 229 246 238 202 190 181 193 189 186 187 184 177 174 171 167 165 163 160 159 161 160 162 160 157 158 150 147 141 136 133 115 98 87 76 76 67 61 57 57 57 61 60 41 38 34 40
218 216 214 222 208 247 254 160 125 182 191 191 187 181 177 173 170 166 164 162 163 164 165 163 164 160 158 158 154 150 144 147 143 127 118 105 88 76 68 71 68 64 55 50 52 46 40 37 34